This is the latest recevied weather packets stored in our database for station/object KC7UNY-13. If no packets are shown the sender has not sent any weather packets the latest 10 day(s).
| Time | Temp. | Humidity | Pressure | Rain* | Wind** | Luminosity | Snow |
|---|---|---|---|---|---|---|---|
| 1777071266 | 32.22° C | 16% | 1007 hPa | 0 mm | - | 411 W/m² | - |
| 1777070961 | 32.22° C | 16% | 1007.1 hPa | 0 mm | - | 431 W/m² | - |
| 1777070660 | 32.22° C | 15% | 1007.1 hPa | 0 mm | - | 446 W/m² | - |
| 1777070355 | 32.78° C | 15% | 1007.2 hPa | 0 mm | - | 461 W/m² | - |
| 1777070055 | 32.78° C | 15% | 1007.2 hPa | 0 mm | - | 475 W/m² | - |
| 1777069749 | 31.67° C | 16% | 1007.4 hPa | 0 mm | - | 497 W/m² | - |
| 1777069443 | 32.22° C | 16% | 1007.5 hPa | 0 mm | - | 457 W/m² | - |
| 1777069141 | 31.67° C | 16% | 1007.6 hPa | 0 mm | - | 523 W/m² | - |
| 1777068837 | 32.22° C | 16% | 1007.6 hPa | 0 mm | - | 536 W/m² | - |
| 1777068533 | 31.67° C | 16% | 1007.7 hPa | 0 mm | - | 556 W/m² | - |
| 1777068231 | 31.67° C | 16% | 1007.7 hPa | 0 mm | - | 540 W/m² | - |
| 1777067927 | 31.67° C | 16% | 1008 hPa | 0 mm | - | 578 W/m² | - |
| 1777067625 | 31.67° C | 16% | 1007.8 hPa | 0 mm | - | 600 W/m² | - |
| 1777067325 | 31.11° C | 16% | 1008.3 hPa | 0 mm | - | 593 W/m² | - |
| 1777067020 | 32.22° C | 16% | 1008.3 hPa | 0 mm | - | 624 W/m² | - |
| 1777066715 | 31.11° C | 16% | 1008.3 hPa | 0 mm | - | 635 W/m² | - |
| 1777066412 | 31.11° C | 17% | 1008.4 hPa | 0 mm | - | 644 W/m² | - |
| 1777066107 | 31.11° C | 17% | 1008.5 hPa | 0 mm | - | 655 W/m² | - |
| 1777065806 | 31.11° C | 18% | 1008.5 hPa | 0 mm | - | 667 W/m² | - |
| 1777065503 | 31.11° C | 17% | 1008.5 hPa | 0 mm | - | 677 W/m² | - |
| 1777065201 | 30.56° C | 17% | 1008.8 hPa | 0 mm | - | 689 W/m² | - |
| 1777064900 | 31.11° C | 17% | 1008.8 hPa | 0 mm | - | 692 W/m² | - |
| 1777064596 | 30.56° C | 17% | 1008.8 hPa | 0 mm | - | 706 W/m² | - |
| 1777064292 | 30.56° C | 17% | 1008.8 hPa | 0 mm | - | 717 W/m² | - |
| 1777063988 | 30° C | 17% | 1008.9 hPa | 0 mm | - | 727 W/m² | - |
* Rain latest hour (hover to see other rain measurements)
** Current wind speed in m/s (hover to see current wind gust speed)